Regional Weather Roundup
Issued by NWS Grand Forks, ND

Home | Current Version | Previous Version | Graphics & Text | Print | Product List | Glossary On
Versions: 1 2 3 4 5 6 7 8 9 10 11 12 13 14 15 16 17 18 19 20 21 22 23 24 25 26 27 28 29 30 31 32 33 34 35 36 37 38 39 40 41 42 43 44 45 46 47 48 49 50
000
ASUS43 KFGF 250510
RWRFGF
PRAIRIE TO PINES  WEATHER ROUNDUP
NATIONAL WEATHER SERVICE EASTERN NORTH DAKOTA/GRAND FORKS ND
1100 PM CST SAT JAN 24 2015

 **SATELLITE DATA USED TO AUGMENT SKY COVER AT AUTOMATED STATIONS**
 *****  WEATHER ACROSS EASTERN NORTH DAKOTA  *****

CITY           SKY/WX    TMP DP  RH WIND       PRES   REMARKS
GRAND FORKS    CLOUDY    22  17  81 N8        29.86R WCI  12
GRAND FRKS AFB CLOUDY    20  15  80 N10       29.87R WCI   9
GRAND FRKS NWS   N/A     21 N/A N/A N10         N/A  WCI  10
DEVILS LAKE    MOCLDY    18  14  86 NE7       29.83R WCI   8
FARGO          CLOUDY    31  26  82 N12       29.79R WCI  22
WAHPETON ARPT  CLOUDY    32  30  93 N10       29.76R WCI  24
$$

 ***** WEATHER ACROSS CENTRAL AND WESTERN NORTH DAKOTA  *****

CITY           SKY/WX    TMP DP  RH WIND       PRES   REMARKS
BISMARCK       CLOUDY    36  32  85 NW10      29.82R
MINOT          FOG       31  29  92 N3        29.80R VSB 3/4
JAMESTOWN      LGT SNOW  26  23  88 N12       29.81R FOG     WCI  16
MINOT AFB      CLOUDY    27  27 100 N2        29.81R FOG
GARRISON         N/A     36  33  89 NW16      29.80R
WILLISTON      CLOUDY    35  30  82 W9        29.90R
DICKINSON      CLOUDY    37  30  75 NW17G29   29.87S
HETTINGER      CLOUDY    36  30  79 NW18G25   29.90S
$$

 *****  OTHER AIRPORT OBSERVATIONS IN OUR AREA  *****

CITY           SKY/WX    TMP DP  RH WIND       PRES   REMARKS
WALHALLA         N/A     16  14  93 N10       29.90R WCI   3
GRAFTON AIRPOR NOT AVBL
VALLEY CITY AR NOT AVBL
CANDO          LGT SNOW  18  16  93 NE9       29.84S WCI   6
CAVALIER APRT  MOCLDY    18  12  79 N10       29.89S WCI   6
GWINNER        CLOUDY    32  32 100 N16       29.78R WCI  21
SHEYENNE NWR     N/A     29  28  95 N7        29.95S WCI  22
ROLLA          FLURRIES  16  16 100 E6        29.83R WCI   7
 ***** THE ABOVE OBSERVATIONS ARE NON NWS ARE NOT QUALITY
       CONTROLLED AND MAY MIS-REPORT RAIN FOR SNOW...
$$

  *****  WEATHER ACROSS NORTHERN MINNESOTA  *****

CITY           SKY/WX    TMP DP  RH WIND       PRES   REMARKS
FLAG ISLAND    MOCLDY    10   1  67 E7        29.90R WCI   0
WARROAD        CLOUDY    12   7  79 NE15      29.88S WCI  -4
ROSEAU         CLOUDY    16   9  73 E15       29.87R WCI   1
HALLOCK        CLOUDY    19  10  68 NE7       29.89R WCI  10
THF RVR FALLS  CLOUDY    18  10  73 NE9       29.83R WCI   6
BAUDETTE       CLOUDY    12   4  70 E10       29.86R WCI  -1
WASKISH        CLOUDY    14   9  79 NE8       29.84R WCI   3
CROOKSTON      CLOUDY    21  16  79 NE9       29.85R WCI  11
STEPHEN NDAWN    N/A     19  12  73 NE8         N/A  WCI   9
GREENBUSH NDAW   N/A     16  10  79 NE12        N/A  WCI   3
$$
  *****  WEATHER ACROSS CENTRAL AND WEST MINNESOTA  *****

CITY           SKY/WX    TMP DP  RH WIND       PRES   REMARKS
FOSSTON        CLOUDY    19  12  73 NE8       29.79R WCI   9
BEMIDJI        CLOUDY    20  11  68 NE8       29.77S WCI  11
PARK RAPIDS    CLOUDY    29  22  75 NE9       29.73R WCI  20
ELBOW LAKE     LGT SNOW  32  31  98 NE9       29.71R WCI  24
WADENA         CLOUDY    30  27  86 NE9       29.72R WCI  22
DETROIT LAKES  CLOUDY    32  30  93 NE6       29.74R
MOORHEAD       CLOUDY    30  28  93 N10       29.79R WCI  21
FERGUS FALLS   RAIN      32  32 100 NE5       29.76R
MORRIS MN      LGT SNOW  34  32  93 N10       29.70R VSB 1
STAPLES        CLOUDY    32  28  86 NE8       29.71R WCI  25
$$
  *****  WEATHER ELSEWHERE ACROSS MINNESOTA  *****

CITY           SKY/WX    TMP DP  RH WIND       PRES   REMARKS
DULUTH         FLURRIES  22  15  75 E17       29.78R WCI   8
INTRNTL FALLS  CLOUDY     8   0  69 NE8       29.88R WCI  -4
ELY            PTCLDY     7   1  78 NE3       29.85R
CLOQUET        CLOUDY    23  18  80 E14G23    29.77R WCI  11
WHEATON        LGT SNOW  30  30 100 N10       29.75R WCI  21
BRAINERD       CLOUDY    32  27  81 E13       29.73R WCI  22
HIBBING        CLOUDY    22  13  68 NE7       29.79R WCI  13
ALEXANDRIA     LGT SNOW  33  31  92 NE13      29.70R FOG     WCI  24
SAINT CLOUD    CLOUDY    34  31  88 NE6       29.68R
MINNEAPOLIS    CLOUDY    36  30  79 NE10      29.64R
$$

  *****  WEATHER ACROSS SOUTH DAKOTA  *****

CITY           SKY/WX    TMP DP  RH WIND       PRES   REMARKS
SIOUX FALLS    FLURRIES  35  33  92 N14       29.61R
BROOKINGS      NOT AVBL
WATERTOWN      LGT SNOW  31  29  92 N17       29.69R FOG     WCI  19
HURON          LGT SNOW  32  31  96 N18G26    29.74R FOG     WCI  20
SISSETON         N/A     32  32 100 N16       29.73R WCI  21
ABERDEEN       LGT SNOW  33  30  88 N18       29.79R FOG     WCI  22
MITCHELL       MIX PCPN  34  33  96 N25G33    29.71R FOG     WCI  21
PIERRE         LGT RAIN  37  34  89 N21G33    29.82R
MOBRIDGE       MIX PCPN  36  34  92 NW12      29.79S
RAPID CITY     CLEAR     41  26  55 NW26G38   29.96R
$$

  *****  SOME WEATHER IN NEARBY STATES *****

CITY           SKY/WX    TMP DP  RH WIND       PRES   REMARKS
GLASGOW MT     CLEAR     32  27  81 NW9       30.01S WCI  24
GREAT FALLS MT CLOUDY    43  33  68 SW12      30.09F
CHEYENNE WY    CLOUDY    39  25  57 NW14G30   30.12R
SCOTTSBLUFF NE MOCLDY    37  32  82 NW16      30.07R
OMAHA NE       CLOUDY    46  40  79 NW9       29.59F
DES MOINES IA  LGT RAIN  43  36  76 SW3       29.57F
DAVENPORT IA   CLOUDY    35  31  85 SE6       29.61S
CHICAGO IL     CLOUDY    32  29  88 N5        29.67S
EAU CLAIRE WI  CLOUDY    33  28  81 NE7       29.66R
LA CROSSE WI   CLOUDY    33  29  85 CALM      29.63S
$$

  *****  SOME NATIONAL WEATHER *****

CITY           SKY/WX    TMP DP  RH WIND       PRES   REMARKS
LA GUARDIA NY  MOCLDY    36  24  62 W16G25    29.49R
RALEIGH NC     CLEAR     38  24  57 W5        29.82R
ATLANTA GA     CLEAR     38  27  64 W5        29.98R
NEW ORLEANS LA PTCLDY    45  39  79 SW9       30.10S
OKLAHOMA CITY  CLOUDY    48  33  56 SW7       29.90F
ALBUQUERQUE NM PTCLDY    39  19  44 NE5       30.24S
SALT LAKE CITY CLOUDY    34  29  82 SW5       30.47F
LOS ANGELES CA CLEAR     63  36  36 E3        30.03R
BOISE ID       CLEAR     32  29  88 CALM      30.46S
SEATTLE WA     CLOUDY    55  53  93 SW3       30.24S
$$

*** WEATHER ACROSS MANITOBA...SASKATCHEWAN AND ONTARIO ***
                ***ONTARIO***

CITY           SKY/WX    TMP DP  RH WIND       PRES   REMARKS
GERALDTON      CLEAR    -11 -17  77 NW3       29.90R
THUNDER BAY    CLEAR      1  -8  66 N6        29.98R WCI -10
SIOUX LOOKOUT  CLEAR     -8 -13  77 CALM      29.95R
TORONTO        MOCLDY    28  21  74 N22       29.55R WCI  15
BIG TROUT LK   CLEAR    -17 -22  76 NW5       30.04R WCI -29
PICKLE LAKE    NOT AVBL
DRYDEN         CLEAR     -4  -8  84 NE8       29.93R WCI -19
KENORA         CLOUDY     5  -4  66 E12       29.91R WCI -11
$$
                *** MANITOBA***

CITY           SKY/WX    TMP DP  RH WIND       PRES   REMARKS
BRANDON        FLURRIES  10   9  92 E9        29.89R WCI  -2
DAUPHIN        LGT SNOW   9   5  85 NE6       29.95R WCI  -1
ISLAND LAKE    CRYSTALS -18 -24  76 CALM      30.08R
PILOT MOUND      N/A     14  10  85 NE6         N/A  WCI   5
THE PAS        CLOUDY     1  -4  78 SE6       30.00R WCI -10
THOMPSON       CLOUDY    -8 -15  71 VRB2      30.06R
WINNIPEG       MOCLDY    14   7  73 NE8       29.93R WCI   3
LYNN LAKE      FLURRIES  -4  -8  84 S5        29.94R WCI -15
GILLAM         CLEAR    -22 -27  76 CALM      30.12R
$$
                ***SASKATCHEWAN***

CITY           SKY/WX    TMP DP  RH WIND       PRES   REMARKS
ESTEVAN        CLOUDY    36  32  87 NW17G24   29.84R
KINDERSLEY     PTCLDY    28  23  80 W7        29.99R WCI  21
LLOYDMINSTER   MOCLDY    30  25  80 W10       29.90S WCI  21
PRINCE ALBERT  NOT AVBL
REGINA         CLOUDY    32  30  93 NW23G33   29.90R WCI  19
YORKTON        CLOUDY    14  12  92 NE9       29.89R WCI   2
N. BATTLEFORD  CLEAR     30  28  93 SW5       29.94S
LA RONGE       FLURRIES  10   7  85 SE6       29.88S WCI   1
SASKATOON      PTCLDY    30  28  93 CALM      29.95S
SWIFT CURRENT  CLEAR     32  27  80 W9        29.97S WCI  24
$$
NOTE: THESE ARE AUTOMATED STATIONS WITH LIMITED QUALITY CONTROL
      "FAIR" INDICATES FEW OR NO CLOUDS BELOW 12,000 FEET WITH NO
      SIGNIFICANT WEATHER AND/OR OBSTRUCTIONS TO VISIBILITY.
      SKY/WX - SKY CONDITION AND SIGNIFICANT WEATHER.
      TMP - AIR TEMPERATURE.    DP   - DEWPOINT TEMPERATURE.
      RH  - RELATIVE HUMIDITY.  PRES - PRESSURE.
      HX  - HEAT INDEX.         WCI  - WIND CHILL INDEX.
$


USA.gov is the U.S. government's official web portal to all federal, state and local government web resources and services.